Location: Buisson
(44.2787°N, 4.9969°E)
Time: 05:57:15
(UTC+00:00)

Cosmos 864 Rocket - Pass Details

Date: 18 April 2021
Orbit: 953 x 991 km, 82.9° (Epoch: 05 May)

Event Time Altitude Azimuth Distance (km) Brightness Sun altitude
Rises 01:29:11 0° 351° (N) 3,693 8.2 -29.5°
Reaches altitude 10° 01:31:43 10° 351° (N) 2,736 7.4 -29.3°
Maximum altitude 01:38:00 87° 264° (W) 978 4.3 -28.7°
Enters shadow 01:38:15 83° 201° (SSW) 982 4.3 -28.6°
